Weather History for KSDF - December, 2011

Change the Weather History Date:

Monday, December 19, 2011

  Actual Average Record
Temperature  
Mean Temperature 48 °F 37 °F  
Max Temperature 54 °F 45 °F 69 °F (2008)
Min Temperature 42 °F 29 °F -5 °F (1884)
Degree Days  
Heating Degree Days 17 28  
Month to date heating degree days 432 491  
Since 1 July heating degree days 1090 1226  
Cooling Degree Days 0 0  
Month to date cooling degree days 0 0  
Year to date cooling degree days 1852 1613  
Moisture  
Dew Point 34 °F    
Average Humidity 59    
Maximum Humidity 71    
Minimum Humidity 46    
Precipitation  
Precipitation 0.01 in 0.12 in 2.44 in (2002)
Month to date precipitation 3.30 2.35  
Year to date precipitation 66.11 43.43  
Snow  
Snow 0.00 in 0.10 in 2.10 in (1950)
Month to date snowfall T 1.3  
Since 1 July snowfall T 1.5  
Snow Depth 0.00 in    
Sea Level Pressure  
Sea Level Pressure 30.14 in    
Wind  
Wind Speed 8 mph (SSW)    
Max Wind Speed 20 mph    
Max Gust Speed 24 mph    
Visibility 10 miles    
Events Rain    
T = Trace of Precipitation, MM = Missing Value Source: NWS Daily Summary

Daily Weather History Graph

Daily Weather History Graph

Search for Another Location

Airport or City:

Trip Planner

Search our weather history database for the weather conditions in past years. The results will help you decide how hot, cold, wet, or windy it might be!

Date:

Astronomy

Dec. 19, 2011 Rise Set
Actual Time 7:54 AM EST 5:25 PM EST
Civil Twilight 7:24 AM EST 5:54 PM EST
Nautical Twilight 6:51 AM EST 6:28 PM EST
Astronomical Twilight 6:19 AM EST 7:00 PM EST
Moon 2:07 AM EST (12/19) 1:20 PM EST (12/19)
Length of Visible Light 10h 30m
Length of Day
9h 30m
Waning Crescent, 31% of the Moon is Illuminated
Dec 19
Waning Crescent
Dec 24
New
Jan 1
First Quarter
Jan 9
Full
Jan 16
Last Quarter

Hourly Weather History & Observations

Time (EST) Temp. Windchill Dew Point Humidity Pressure Visibility Wind Dir Wind Speed Gust Speed Precip Events Conditions
12:56 AM 44.1 °F 39.5 °F 30.9 °F 60% 30.17 in 10.0 mi South 8.1 mph - N/A   Clear
1:56 AM 43.0 °F 39.5 °F 30.9 °F 62% 30.16 in 10.0 mi South 5.8 mph - N/A   Clear
2:56 AM 44.1 °F 39.0 °F 30.9 °F 60% 30.16 in 10.0 mi South 9.2 mph - N/A   Scattered Clouds
3:56 AM 46.0 °F 41.4 °F 30.9 °F 56% 30.15 in 10.0 mi South 9.2 mph - N/A   Overcast
4:56 AM 46.9 °F - 30.9 °F 54% 30.14 in 10.0 mi SSW 10.4 mph - N/A   Overcast
5:56 AM 46.9 °F - 30.9 °F 54% 30.14 in 10.0 mi South 10.4 mph - N/A   Overcast
6:56 AM 46.9 °F - 30.9 °F 54% 30.15 in 10.0 mi South 6.9 mph - N/A   Overcast
7:56 AM 48.0 °F - 30.9 °F 52% 30.16 in 10.0 mi SSW 9.2 mph - N/A   Overcast
8:56 AM 48.9 °F - 32.0 °F 52% 30.16 in 10.0 mi SW 9.2 mph - 0.00 in   Overcast
9:56 AM 50.0 °F - 33.1 °F 52% 30.17 in 10.0 mi SSW 12.7 mph - N/A   Overcast
10:56 AM 50.0 °F - 33.1 °F 52% 30.17 in 10.0 mi SW 13.8 mph - N/A   Overcast
11:56 AM 53.1 °F - 33.1 °F 47% 30.16 in 10.0 mi SW 13.8 mph 24.2 mph N/A   Overcast
12:56 PM 53.1 °F - 33.1 °F 47% 30.12 in 10.0 mi SW 11.5 mph - N/A   Overcast
1:56 PM 53.1 °F - 33.1 °F 47% 30.10 in 10.0 mi SW 15.0 mph 21.9 mph N/A   Overcast
2:56 PM 54.0 °F - 33.1 °F 45% 30.09 in 10.0 mi SW 12.7 mph - N/A   Overcast
3:56 PM 52.0 °F - 35.1 °F 53% 30.11 in 10.0 mi WSW 12.7 mph 19.6 mph 0.00 in Rain Light Rain
4:56 PM 48.9 °F - 39.9 °F 71% 30.12 in 7.0 mi WSW 9.2 mph - 0.00 in Rain Light Rain
5:56 PM 48.9 °F - 41.0 °F 74% 30.13 in 10.0 mi SSW 4.6 mph - 0.01 in   Overcast
6:56 PM 48.9 °F - 39.9 °F 71% 30.13 in 10.0 mi Calm Calm - 0.00 in   Overcast
7:56 PM 48.9 °F - 39.9 °F 71% 30.13 in 10.0 mi Calm Calm - N/A   Overcast
8:56 PM 48.9 °F - 39.0 °F 69% 30.14 in 10.0 mi South 5.8 mph - N/A   Overcast
9:56 PM 50.0 °F - 37.0 °F 61% 30.14 in 10.0 mi Calm Calm - N/A   Overcast
10:56 PM 50.0 °F - 37.0 °F 61% 30.14 in 10.0 mi Calm Calm - N/A   Overcast
11:56 PM 48.9 °F - 39.0 °F 69% 30.14 in 10.0 mi Calm Calm - N/A   Overcast